Location: ??
(34.7707°N, 135.6540°E)
Time: 08:30:17
(UTC+00:00)

Shenzhou-11 Module - Pass Details

Date: 09 April 2020
Orbit: 275 x 293 km, 42.8° (Epoch: 29 May)

Event Time Altitude Azimuth Distance (km) Brightness Sun altitude
Exits shadow 19:05:30 54° 26° (NNE) 347 2.0 -17.9°
Drops below altitude 10° 19:07:37 10° 58° (ENE) 1,122 5.7 -17.5°
Sets 19:09:35 0° 61° (ENE) 1,949 7.4 -17.1°
